{"data":{"norad_id":62673,"epoch":"2026-09-22T16:33:04.842432Z","epoch_age_seconds":131399,"freshness":"FRESH","line1":"1 62673U 25009BS  26265.68963938  .00004692  00000+0  20667-3 0  9997","line2":"2 62673  97.4182 338.0602 0003654 150.9963 209.1477 15.22307723151436","mean_motion":15.22307723,"eccentricity":0.0003654,"inclination_deg":97.4182,"raan_deg":338.0602,"arg_perigee_deg":150.9963,"mean_anomaly_deg":209.1477,"bstar":0.00020667,"rev_number":15143,"period_min":94.593226996327,"perigee_km":496.36887337223,"apogee_km":501.39459866452,"semimajor_km":6877.0187360184,"source":"CELESTRAK","updated_at":"2026-09-23T09:00:21.546141Z"}}